Location: Carimao
(10.4546°N, 66.7419°W)
Time: 07:26:18
(UTC+00:00)

Milstar 3 - Pass Details

Date: 19 May 2024
Orbit: 1097 x 5147 km, 28.2° (Epoch: 22 June)

Event Time Altitude Azimuth Distance (km) Brightness Sun altitude
Rises 23:11:22 0° 295° (WNW) 3,903 8.3 -7.4°
Reaches altitude 10° 23:13:52 10° 294° (WNW) 2,944 6.8 -8.0°
Maximum altitude 23:20:31 79° 209° (SSW) 1,279 3.1 -9.5°
Enters shadow 23:29:15 13° 123° (ESE) 3,842 4.9 -11.5°
